Weather History for K3MW - September, 2013

Change the Weather History Date:

Friday, September 27, 2013

  Actual Average Record
Temperature  
Mean Temperature 36 °F -  
Max Temperature 44 °F - - ()
Min Temperature 28 °F - - ()
Degree Days  
Heating Degree Days 29    
Moisture  
Dew Point 31 °F    
Average Humidity 87    
Maximum Humidity 100    
Minimum Humidity 49    
Precipitation  
Precipitation 0.00 in - - ()
Sea Level Pressure  
Sea Level Pressure 30.03 in    
Wind  
Wind Speed 15 mph (WSW)    
Max Wind Speed 24 mph    
Max Gust Speed 37 mph    
Visibility 2 miles    
Events Thunderstorm    
T = Trace of Precipitation, MM = Missing Value Source: NWS Daily Summary

Daily Weather History Graph

Daily Weather History Graph

Search for Another Location

Airport or City:

Trip Planner

Search our weather history database for the weather conditions in past years. The results will help you decide how hot, cold, wet, or windy it might be!

Date:

Astronomy

Sep. 27, 2013 Rise Set
Actual Time 6:59 AM MDT 6:55 PM MDT
Civil Twilight 6:32 AM MDT 7:22 PM MDT
Nautical Twilight 6:00 AM MDT 7:54 PM MDT
Astronomical Twilight 5:28 AM MDT 8:26 PM MDT
Moon No Moon Rise 2:36 PM MDT (9/27)
Length of Visible Light 12h 49m
Length of Day
11h 55m
Last Quarter, 44% of the Moon is Illuminated
Sep 27
Last Quarter
Oct 4
New
Oct 11
First Quarter
Oct 18
Full
Oct 26
Last Quarter

Hourly Weather History & Observations

Time (MDT) Temp. Windchill Dew Point Humidity Pressure Visibility Wind Dir Wind Speed Gust Speed Precip Events Conditions
12:15 AM 44.6 °F 35.9 °F 26.6 °F 49% 29.99 in 10.0 mi SSE 23.0 mph 31.1 mph N/A   Mostly Cloudy
12:35 AM 44.6 °F 38.4 °F 26.6 °F 49% 29.99 in 10.0 mi South 12.7 mph 23.0 mph N/A   Mostly Cloudy
12:55 AM 42.8 °F 37.0 °F 28.4 °F 57% 30.01 in 10.0 mi West 10.4 mph 20.7 mph N/A   Overcast
1:15 AM 37.4 °F 28.9 °F 32.0 °F 81% 30.02 in 10.0 mi WSW 13.8 mph 17.3 mph N/A   Overcast
1:35 AM 35.6 °F 28.6 °F 33.8 °F 93% 30.02 in 0.2 mi WSW 9.2 mph 16.1 mph N/A   Overcast
1:55 AM 37.4 °F 32.1 °F 33.8 °F 87% 29.97 in 2.5 mi ESE 6.9 mph - N/A   Overcast
2:15 AM 37.4 °F 30.3 °F 33.8 °F 87% 29.95 in 10.0 mi SE 10.4 mph - N/A   Scattered Clouds
2:35 AM 37.4 °F 29.3 °F 33.8 °F 87% 29.97 in 10.0 mi South 12.7 mph 19.6 mph N/A   Scattered Clouds
2:55 AM 37.4 °F 28.5 °F 32.0 °F 81% 29.97 in 10.0 mi South 15.0 mph - N/A   Overcast
3:15 AM 39.2 °F 30.8 °F 32.0 °F 75% 29.96 in 10.0 mi SSE 15.0 mph - N/A   Overcast
3:35 AM 39.2 °F 31.2 °F 32.0 °F 75% 29.96 in 10.0 mi SE 13.8 mph 21.9 mph N/A   Overcast
3:55 AM 39.2 °F 30.2 °F 32.0 °F 75% 29.95 in 10.0 mi SE 17.3 mph - N/A   Overcast
4:15 AM 39.2 °F 28.5 °F 33.8 °F 81% 29.94 in 10.0 mi SE 24.2 mph 32.2 mph N/A   Overcast
4:35 AM 39.2 °F 29.6 °F 33.8 °F 81% 29.93 in 10.0 mi SE 19.6 mph 29.9 mph N/A   Overcast
4:55 AM 39.2 °F 29.6 °F 33.8 °F 81% 29.93 in 10.0 mi SE 19.6 mph 26.5 mph N/A   Overcast
5:15 AM 37.4 °F 29.3 °F 33.8 °F 87% 29.95 in 10.0 mi South 12.7 mph - N/A   Overcast
5:35 AM 35.6 °F 28.6 °F 32.0 °F 87% 29.96 in 0.5 mi South 9.2 mph 20.7 mph N/A   Overcast
5:55 AM 35.6 °F 30.7 °F 32.0 °F 87% 29.97 in 0.2 mi West 5.8 mph - N/A   Overcast
6:15 AM 33.8 °F 27.0 °F 32.0 °F 93% 29.97 in 0.5 mi WSW 8.1 mph - N/A Thunderstorm Overcast
6:35 AM 33.8 °F 25.8 °F 32.0 °F 93% 29.98 in 0.5 mi South 10.4 mph - N/A   Overcast
6:55 AM 33.8 °F 27.7 °F 32.0 °F 93% 29.97 in 0.2 mi SW 6.9 mph - N/A   Overcast
7:15 AM 33.8 °F 25.8 °F 32.0 °F 93% 29.99 in 0.2 mi SSW 10.4 mph - N/A   Overcast
7:35 AM 33.8 °F 27.0 °F 32.0 °F 93% 29.99 in 0.2 mi West 8.1 mph - N/A   Overcast
7:55 AM 33.8 °F 24.3 °F 32.0 °F 93% 29.99 in 0.2 mi West 13.8 mph 24.2 mph N/A   Overcast
8:15 AM 33.8 °F 26.4 °F 32.0 °F 93% 29.98 in 0.2 mi WSW 9.2 mph - N/A   Overcast
8:35 AM 33.8 °F 25.8 °F 32.0 °F 93% 29.98 in 0.2 mi WSW 10.4 mph - N/A   Overcast
8:55 AM 33.8 °F 25.3 °F 32.0 °F 93% 29.99 in 0.2 mi SW 11.5 mph 16.1 mph N/A   Overcast
9:15 AM 33.8 °F 24.8 °F 32.0 °F 93% 30.00 in 0.2 mi WSW 12.7 mph 16.1 mph N/A   Overcast
9:35 AM 32.0 °F 25.6 °F 32.0 °F 100% 29.99 in 0.2 mi West 6.9 mph - N/A   Overcast
9:55 AM 32.0 °F 25.6 °F 30.2 °F 93% 29.99 in 0.2 mi WSW 6.9 mph - N/A   Overcast
10:15 AM 32.0 °F 26.4 °F 30.2 °F 93% 29.99 in 0.2 mi West 5.8 mph - N/A   Overcast
10:35 AM 32.0 °F 26.4 °F 32.0 °F 100% 29.99 in 0.2 mi West 5.8 mph - N/A   Overcast
10:55 AM 32.0 °F 24.8 °F 32.0 °F 100% 29.99 in 0.2 mi SW 8.1 mph - N/A   Overcast
11:15 AM 33.8 °F 26.4 °F 32.0 °F 93% 29.99 in 0.2 mi SSW 9.2 mph - N/A   Overcast
11:35 AM 33.8 °F 23.5 °F 32.0 °F 93% 29.98 in 0.2 mi South 16.1 mph 23.0 mph N/A   Overcast
11:55 AM 33.8 °F 23.9 °F 32.0 °F 93% 29.99 in 0.2 mi South 15.0 mph 29.9 mph N/A Thunderstorm Overcast
12:15 PM 33.8 °F 22.8 °F 32.0 °F 93% 29.99 in 0.2 mi South 18.4 mph 27.6 mph N/A   Overcast
12:35 PM 33.8 °F 23.9 °F 32.0 °F 93% 29.99 in 0.2 mi WSW 15.0 mph 29.9 mph N/A   Overcast
12:55 PM 32.0 °F 20.5 °F 28.4 °F 87% 29.99 in 0.2 mi WNW 18.4 mph 27.6 mph N/A   Overcast
1:15 PM 30.2 °F 17.4 °F 26.6 °F 86% 29.98 in 0.2 mi WNW 20.7 mph 29.9 mph N/A   Overcast
1:35 PM 30.2 °F - 26.6 °F 86% 29.98 in 0.2 mi North - - N/A   Overcast
1:55 PM 30.2 °F 17.8 °F 26.6 °F 86% 30.00 in 0.2 mi West 19.6 mph 25.3 mph N/A   Overcast
2:15 PM 30.2 °F 19.8 °F 26.6 °F 86% 30.00 in 0.2 mi West 13.8 mph 26.5 mph N/A   Overcast
2:35 PM - - - N/A% 30.01 in 0.2 mi West 18.4 mph 24.2 mph N/A   Overcast
2:55 PM - - - N/A% 30.02 in 0.2 mi WNW 13.8 mph 21.9 mph N/A   Overcast
3:15 PM - - - N/A% 30.02 in 0.2 mi West 15.0 mph 25.3 mph N/A   Overcast
3:35 PM - - - N/A% 30.03 in 0.2 mi West 16.1 mph 25.3 mph N/A   Overcast
3:55 PM - - - N/A% 30.03 in 0.2 mi West 17.3 mph 25.3 mph N/A   Overcast
4:15 PM - - - N/A% 30.04 in 0.2 mi West 12.7 mph 20.7 mph N/A   Overcast
4:35 PM 28.4 °F 17.0 °F 26.6 °F 93% 30.05 in 0.2 mi WSW 15.0 mph 25.3 mph N/A Thunderstorm Overcast
4:55 PM 28.4 °F 15.1 °F 26.6 °F 93% 30.05 in 0.2 mi West 20.7 mph 25.3 mph N/A   Overcast
5:15 PM - - - N/A% 30.07 in 0.2 mi West 11.5 mph - N/A   Overcast
5:35 PM - - - N/A% 30.07 in 0.2 mi North - - N/A   Overcast
5:55 PM - - - N/A% 30.09 in 0.2 mi West 16.1 mph 24.2 mph N/A   Overcast
6:15 PM - - - N/A% 30.09 in 0.2 mi West 17.3 mph 27.6 mph N/A   Overcast
6:35 PM - - - N/A% 30.09 in 0.2 mi West 18.4 mph 25.3 mph N/A   Overcast
6:55 PM - - - N/A% 30.10 in 0.2 mi West 17.3 mph 26.5 mph N/A   Overcast
7:15 PM - - - N/A% 30.11 in 0.2 mi West 15.0 mph 24.2 mph N/A   Overcast
7:35 PM - - - N/A% 30.12 in 0.2 mi West 17.3 mph 24.2 mph N/A   Overcast
7:55 PM - - - N/A% 30.11 in 0.2 mi West 19.6 mph 27.6 mph N/A   Overcast
8:15 PM - - - N/A% 30.12 in 0.2 mi West 21.9 mph 31.1 mph N/A   Overcast
8:35 PM - - - N/A% 30.14 in 0.2 mi West 17.3 mph 23.0 mph N/A   Overcast
8:55 PM - - - N/A% 30.15 in - WSW 11.5 mph 18.4 mph N/A   Overcast
9:15 PM - - - N/A% 30.15 in - West 18.4 mph 34.5 mph N/A   Overcast
9:35 PM - - - N/A% 30.16 in - West 18.4 mph 31.1 mph N/A   Overcast
9:55 PM - - - N/A% 30.16 in - WNW 16.1 mph 34.5 mph N/A   Overcast
10:15 PM - - - N/A% 30.16 in - West 18.4 mph 31.1 mph N/A   Overcast
10:35 PM - - - N/A% 30.16 in - West 18.4 mph 32.2 mph N/A   Overcast
10:55 PM - - - N/A% 30.16 in - West 20.7 mph 33.4 mph N/A   Overcast
11:15 PM - - - N/A% 30.16 in - West 20.7 mph 34.5 mph N/A   Overcast
11:32 PM - - - N/A% 30.16 in - West 23.0 mph 36.8 mph N/A   Overcast
11:55 PM - - - N/A% 30.16 in - West 23.0 mph 35.7 mph N/A   Overcast